Home > Time Zones > World Clock > Weather > Chad > Sarh > Past weeks

Flag for Chad Weather past 2 weeks in Sarh, Chad

Now
77 °F

Passing clouds.


Feels Like: 79 °F
Forecast: 80 / 100 °F
Wind: 9 mph from West

Location: Sarh Airport

Current Time: May 25, 2015 at 10:31:59 AM

Latest Report: May 25, 2015 at 9:00 AM


Visibility: N/A

Pressure: 29.95 "Hg

Humidity: 74%

Dew point: 68 °F

Location of SarhLocation

Historic Weather in Sarh — Graph

°F

Sarh temperature yesterday

Maximum temperature yesterday: 99 °F (at 2:00 PM)
Minimum temperature yesterday: 79 °F (at 5:00 AM)
Average temperature yesterday: 89 °F

Past Weeks' High & Low Weather Summary

 TemperatureHumidityPressure
High102 °F (May 17, 2:00 PM)100% (May 13, 5:00 AM)30.04 "Hg (May 13, 5:00 AM)
Low70 °F (May 13, 5:00 AM)9% (May 15, 9:00 AM)29.74 "Hg (May 18, 5:00 PM)
Average88 °F57%29.88 "Hg
* Reported May 10 9:00 AM — May 25 9:00 AM, Sarh, Weather by CustomWeather, © 2015

Note: Actual official high and low records may vary slightly from our data, if they occured in-between our weather recording intervals... More about our weather records

Advertising

Sarh weather history for previous 24 hours

 ConditionsComfort  
Time TempWeatherWind HumidityBarometerVisibility
9:00 AM
Mon, May 25
77 °FPassing clouds.9 mph74%29.95 "HgN/A
8:00 AM75 °FPassing clouds.12 mph78%29.98 "HgN/A
7:00 AM77 °FThunderstorms. Passing clouds.7 mph74%29.92 "HgN/A
6:00 AM79 °FThunderstorms. Passing clouds.9 mph74%29.92 "HgN/A
5:00 AM81 °FThunderstorms. Passing clouds.No wind66%29.92 "HgN/A
3:00 AM82 °FThunderstorms. Passing clouds.12 mph70%29.86 "HgN/A
1:00 AM84 °FClear.5 mph66%29.83 "Hg10 mi
12:00 AM84 °FClear.No wind66%29.86 "Hg10 mi
10:00 PM
Sun, May 24
88 °FClear.No wind55%29.86 "Hg10 mi
9:00 PM90 °FThunderstorms. Passing clouds.No wind52%29.83 "HgN/A
8:00 PM90 °FThunderstorms. Passing clouds.No wind59%29.83 "HgN/A
6:00 PM95 °FPassing clouds.No wind39%29.80 "HgN/A
5:00 PM99 °FPassing clouds.5 mph35%29.83 "HgN/A
4:00 PM99 °FPassing clouds.5 mph33%29.86 "HgN/A
3:00 PM99 °FPassing clouds.5 mph31%29.86 "HgN/A
2:00 PM99 °FPassing clouds.5 mph31%29.86 "HgN/A
1:00 PM97 °FPassing clouds.7 mph37%29.89 "HgN/A
12:00 PM95 °FSunny.7 mph41%29.89 "Hg10 mi
11:00 AM91 °FSunny.7 mph46%29.92 "Hg10 mi
10:00 AM90 °FSunny.9 mph49%29.95 "Hg10 mi
Weather by CustomWeather, © 2015

See weather overviewHow to use our weather pages